CGJUF CYQM-CYHZ

Flight info

Callsign CGJUF
Flight time 0h 44m
Altitude 5000
Route LOKRI
Aircraft C172/L-SFG/C

Departure

Time 2026-05-04 22:55
Airport Greater Moncton Roméo LeBlanc International Airport (CYQM)

Arrival

Time 2026-05-04 23:40
Airport Halifax / Stanfield International Airport (CYHZ)
Time Latitude Longitude Altitude Speed Heading
2026-05-04 22:32 46.11594 -64.68734 199 ft 0 kts 316°
2026-05-04 22:51 46.11598 -64.68735 195 ft 5 kts 25°
2026-05-04 22:51 46.11558 -64.68641 198 ft 11 kts 98°
2026-05-04 22:51 46.11535 -64.68545 205 ft 15 kts 101°
2026-05-04 22:52 46.11606 -64.68428 195 ft 19 kts 36°
2026-05-04 22:52 46.11719 -64.68281 197 ft 25 kts 41°
2026-05-04 22:52 46.11843 -64.68114 204 ft 22 kts 41°
2026-05-04 22:52 46.11887 -64.68058 196 ft 6 kts 45°
2026-05-04 22:53 46.11916 -64.68019 197 ft 11 kts 51°
2026-05-04 22:53 46.11913 -64.67948 192 ft 0 kts 128°
2026-05-04 22:53 46.11910 -64.67941 192 ft 0 kts 124°
2026-05-04 22:53 46.11908 -64.67936 196 ft 4 kts 125°
2026-05-04 22:54 46.11860 -64.67860 191 ft 15 kts 143°
2026-05-04 22:54 46.11762 -64.67897 192 ft 20 kts 223°
2026-05-04 22:54 46.11623 -64.68084 196 ft 40 kts 223°
2026-05-04 22:54 46.11357 -64.68423 203 ft 49 kts 228°
2026-05-04 22:55 46.11144 -64.68717 196 ft 61 kts 223°
2026-05-04 22:55 46.10788 -64.69211 450 ft 73 kts 228°
2026-05-04 22:55 46.10428 -64.69748 802 ft 73 kts 229°
2026-05-04 22:55 46.10093 -64.70297 1082 ft 78 kts 231°
2026-05-04 22:56 46.09710 -64.70793 1533 ft 69 kts 229°
2026-05-04 22:56 46.09320 -64.71216 1893 ft 69 kts 226°
2026-05-04 22:56 46.08930 -64.71647 2225 ft 73 kts 232°
2026-05-04 22:56 46.08598 -64.72180 2587 ft 69 kts 244°
2026-05-04 22:57 46.08166 -64.72607 2938 ft 74 kts 226°
2026-05-04 22:57 46.07703 -64.72972 3186 ft 82 kts 229°
2026-05-04 22:57 46.07253 -64.73412 3644 ft 68 kts 221°
2026-05-04 22:57 46.06753 -64.73700 3800 ft 92 kts 213°
2026-05-04 22:58 46.06135 -64.73765 4403 ft 56 kts 212°
2026-05-04 22:58 46.05561 -64.73715 4425 ft 103 kts 189°
2026-05-04 22:58 46.04872 -64.73406 4690 ft 114 kts 176°
2026-05-04 22:58 46.04100 -64.73052 4919 ft 121 kts 175°
2026-05-04 22:59 46.03267 -64.72622 5001 ft 132 kts 176°
2026-05-04 22:59 46.02415 -64.72113 5246 ft 123 kts 166°
2026-05-04 22:59 46.01627 -64.71484 5206 ft 145 kts 164°
2026-05-04 22:59 46.00678 -64.70765 5248 ft 148 kts 164°
2026-05-04 23:00 45.99743 -64.70056 5018 ft 166 kts 163°
2026-05-04 23:00 45.98654 -64.69264 4780 ft 171 kts 163°
2026-05-04 23:00 45.97660 -64.68568 4925 ft 153 kts 172°
2026-05-04 23:00 45.96650 -64.68222 4813 ft 148 kts 184°
2026-05-04 23:01 45.95745 -64.68108 5169 ft 119 kts 189°
2026-05-04 23:01 45.94843 -64.67541 5015 ft 161 kts 155°
2026-05-04 23:01 45.94018 -64.66229 4688 ft 184 kts 136°
2026-05-04 23:01 45.93236 -64.65000 4955 ft 154 kts 149°
2026-05-04 23:02 45.92480 -64.63792 4949 ft 163 kts 139°
2026-05-04 23:02 45.91822 -64.62462 4958 ft 169 kts 128°
2026-05-04 23:02 45.91127 -64.61029 4863 ft 169 kts 132°
2026-05-04 23:02 45.90504 -64.59602 4720 ft 180 kts 127°
2026-05-04 23:03 45.89766 -64.58088 4599 ft 175 kts 138°
2026-05-04 23:03 45.88985 -64.56893 4734 ft 159 kts 146°
2026-05-04 23:03 45.88178 -64.55429 3644 ft 199 kts 128°
2026-05-04 23:03 45.87579 -64.54175 4533 ft 136 kts 141°
2026-05-04 23:04 45.86849 -64.53189 4317 ft 160 kts 157°
2026-05-04 23:04 45.85969 -64.52168 4397 ft 159 kts 147°
2026-05-04 23:04 45.85178 -64.51067 4499 ft 161 kts 143°
2026-05-04 23:04 45.84430 -64.49905 4635 ft 158 kts 141°
2026-05-04 23:05 45.83684 -64.48812 4736 ft 153 kts 149°
2026-05-04 23:05 45.82820 -64.47979 4803 ft 147 kts 161°
2026-05-04 23:05 45.81965 -64.47125 4844 ft 153 kts 156°
2026-05-04 23:05 45.81136 -64.46165 4955 ft 151 kts 152°
2026-05-04 23:06 45.80359 -64.45122 5045 ft 155 kts 145°
2026-05-04 23:06 45.79621 -64.44017 5175 ft 155 kts 142°
2026-05-04 23:06 45.78896 -64.42865 5219 ft 157 kts 142°
2026-05-04 23:06 45.78151 -64.41726 5304 ft 151 kts 148°
2026-05-04 23:07 45.77387 -64.40704 5373 ft 153 kts 148°
2026-05-04 23:07 45.76611 -64.39589 5327 ft 161 kts 145°
2026-05-04 23:07 45.75846 -64.38422 5376 ft 160 kts 144°
2026-05-04 23:07 45.75093 -64.37241 5336 ft 165 kts 143°
2026-05-04 23:08 45.74313 -64.36056 5351 ft 161 kts 146°
2026-05-04 23:08 45.73527 -64.34882 5331 ft 164 kts 146°
2026-05-04 23:08 45.72695 -64.33808 5327 ft 161 kts 150°
2026-05-04 23:08 45.71859 -64.32737 5315 ft 161 kts 151°
2026-05-04 23:09 45.71011 -64.31668 5285 ft 162 kts 149°
2026-05-04 23:09 45.70223 -64.30527 5281 ft 162 kts 143°
2026-05-04 23:09 45.69436 -64.29339 5177 ft 164 kts 146°
2026-05-04 23:09 45.68648 -64.28170 5175 ft 163 kts 143°
2026-05-04 23:10 45.67866 -64.26997 5146 ft 164 kts 143°
2026-05-04 23:10 45.67094 -64.25804 5138 ft 163 kts 143°
2026-05-04 23:10 45.66319 -64.24621 5090 ft 163 kts 145°
2026-05-04 23:10 45.65535 -64.23428 5047 ft 165 kts 143°
2026-05-04 23:11 45.64729 -64.22286 5028 ft 162 kts 150°
2026-05-04 23:11 45.63896 -64.21210 4987 ft 160 kts 153°
2026-05-04 23:11 45.63074 -64.20152 4948 ft 161 kts 150°
2026-05-04 23:11 45.62255 -64.19110 4979 ft 156 kts 154°
2026-05-04 23:12 45.61388 -64.18187 4911 ft 157 kts 157°
2026-05-04 23:12 45.60504 -64.17284 4902 ft 156 kts 158°
2026-05-04 23:12 45.59666 -64.16304 4950 ft 155 kts 154°
2026-05-04 23:12 45.58850 -64.15303 4934 ft 158 kts 152°
2026-05-04 23:13 45.58081 -64.14165 4941 ft 162 kts 143°
2026-05-04 23:13 45.57388 -64.12909 4992 ft 155 kts 148°
2026-05-04 23:13 45.56638 -64.11885 5090 ft 150 kts 155°
2026-05-04 23:13 45.55815 -64.10916 5076 ft 155 kts 156°
2026-05-04 23:14 45.54944 -64.10018 5049 ft 156 kts 158°
2026-05-04 23:14 45.54130 -64.08967 5094 ft 158 kts 149°
2026-05-04 23:14 45.53344 -64.07820 5028 ft 163 kts 148°
2026-05-04 23:14 45.52536 -64.06695 5019 ft 160 kts 149°
2026-05-04 23:15 45.51716 -64.05630 4973 ft 159 kts 153°
2026-05-04 23:15 45.50883 -64.04553 4948 ft 164 kts 148°
2026-05-04 23:15 45.50087 -64.03424 4919 ft 162 kts 149°
2026-05-04 23:15 45.49266 -64.02335 4878 ft 159 kts 155°
2026-05-04 23:16 45.48409 -64.01371 4856 ft 157 kts 156°
2026-05-04 23:16 45.47564 -64.00382 4859 ft 155 kts 154°
2026-05-04 23:16 45.46765 -63.99431 4925 ft 154 kts 155°
2026-05-04 23:16 45.45930 -63.98502 5010 ft 152 kts 158°
2026-05-04 23:17 45.45077 -63.97547 5017 ft 158 kts 156°
2026-05-04 23:17 45.44254 -63.96483 5060 ft 162 kts 150°
2026-05-04 23:17 45.43442 -63.95359 5123 ft 161 kts 149°
2026-05-04 23:17 45.42644 -63.94200 5127 ft 166 kts 146°
2026-05-04 23:18 45.41867 -63.92980 5176 ft 167 kts 145°
2026-05-04 23:18 45.41070 -63.91846 5293 ft 156 kts 156°
2026-05-04 23:18 45.40323 -63.90631 5295 ft 165 kts 142°
2026-05-04 23:18 45.39517 -63.89523 5304 ft 159 kts 155°
2026-05-04 23:19 45.38660 -63.88525 5351 ft 158 kts 157°
2026-05-04 23:19 45.37797 -63.87540 5331 ft 164 kts 154°
2026-05-04 23:19 45.36924 -63.86465 5294 ft 166 kts 153°
2026-05-04 23:19 45.36061 -63.85394 5326 ft 164 kts 152°
2026-05-04 23:20 45.35239 -63.84258 5296 ft 169 kts 148°
2026-05-04 23:20 45.34399 -63.83094 5248 ft 170 kts 148°
2026-05-04 23:20 45.33568 -63.81879 5226 ft 172 kts 146°
2026-05-04 23:20 45.32754 -63.80634 5221 ft 172 kts 145°
2026-05-04 23:21 45.31962 -63.79354 5225 ft 172 kts 143°
2026-05-04 23:21 45.31182 -63.78051 5220 ft 173 kts 142°
2026-05-04 23:21 45.30393 -63.76756 5179 ft 170 kts 150°
2026-05-04 23:21 45.29516 -63.75678 5188 ft 166 kts 155°
2026-05-04 23:22 45.28659 -63.74547 5173 ft 169 kts 148°
2026-05-04 23:22 45.27831 -63.73363 5179 ft 170 kts 148°
2026-05-04 23:22 45.27021 -63.72122 5172 ft 172 kts 144°
2026-05-04 23:22 45.26178 -63.70952 5120 ft 168 kts 153°
2026-05-04 23:23 45.25286 -63.69878 5124 ft 169 kts 154°
2026-05-04 23:23 45.24377 -63.68778 5038 ft 174 kts 152°
2026-05-04 23:23 45.23465 -63.67662 4999 ft 173 kts 153°
2026-05-04 23:23 45.22563 -63.66548 4992 ft 170 kts 153°
2026-05-04 23:24 45.21676 -63.65435 4989 ft 169 kts 154°
2026-05-04 23:24 45.20793 -63.64348 5005 ft 168 kts 154°
2026-05-04 23:24 45.19916 -63.63242 4997 ft 170 kts 152°
2026-05-04 23:24 45.19342 -63.62480 4982 ft 170 kts 152°
2026-05-04 23:25 45.18184 -63.61008 4994 ft 169 kts 153°
2026-05-04 23:25 45.17318 -63.59865 5003 ft 171 kts 152°
2026-05-04 23:25 45.16454 -63.58694 5014 ft 173 kts 149°
2026-05-04 23:25 45.15596 -63.57468 4974 ft 175 kts 149°
2026-05-04 23:26 45.15014 -63.56683 4971 ft 173 kts 152°
2026-05-04 23:26 45.14137 -63.55500 4949 ft 177 kts 146°
2026-05-04 23:26 45.13394 -63.54065 4919 ft 183 kts 133°
2026-05-04 23:26 45.12726 -63.52528 4899 ft 182 kts 132°
2026-05-04 23:27 45.12073 -63.50983 4858 ft 183 kts 130°
2026-05-04 23:27 45.11417 -63.49484 4928 ft 177 kts 134°
2026-05-04 23:27 45.10747 -63.48040 4967 ft 174 kts 136°
2026-05-04 23:27 45.10085 -63.46589 4991 ft 177 kts 133°
2026-05-04 23:28 45.09448 -63.45102 5046 ft 177 kts 131°
2026-05-04 23:28 45.08817 -63.43602 5103 ft 173 kts 134°
2026-05-04 23:28 45.08172 -63.42168 5141 ft 174 kts 134°
2026-05-04 23:28 45.07497 -63.40740 5136 ft 175 kts 137°
2026-05-04 23:29 45.06805 -63.39305 5110 ft 178 kts 134°
2026-05-04 23:29 45.06170 -63.37816 5130 ft 178 kts 132°
2026-05-04 23:29 45.05518 -63.36309 5102 ft 181 kts 132°
2026-05-04 23:29 45.04881 -63.34779 5073 ft 179 kts 134°
2026-05-04 23:30 45.04213 -63.33284 5036 ft 182 kts 133°
2026-05-04 23:30 45.03533 -63.31798 5074 ft 177 kts 135°
2026-05-04 23:30 45.03023 -63.30180 5119 ft 186 kts 110°
2026-05-04 23:30 45.02954 -63.28333 5111 ft 191 kts 78°
2026-05-04 23:31 45.03535 -63.26711 5105 ft 181 kts 38°
2026-05-04 23:31 45.04483 -63.25730 5087 ft 155 kts 357°
2026-05-04 23:31 45.05284 -63.26133 4976 ft 111 kts 290°
2026-05-04 23:31 45.05318 -63.27130 4939 ft 105 kts 256°
2026-05-04 23:32 45.05076 -63.28121 4837 ft 109 kts 253°
2026-05-04 23:32 45.04796 -63.29136 4723 ft 113 kts 252°
2026-05-04 23:32 45.04497 -63.30158 4572 ft 112 kts 252°
2026-05-04 23:32 45.04199 -63.31164 4357 ft 111 kts 252°
2026-05-04 23:33 45.03909 -63.32208 4050 ft 116 kts 254°
2026-05-04 23:33 45.03644 -63.33281 3838 ft 116 kts 252°
2026-05-04 23:33 45.03336 -63.34324 3620 ft 115 kts 249°
2026-05-04 23:33 45.03021 -63.35368 3422 ft 115 kts 249°
2026-05-04 23:34 45.02647 -63.36359 3275 ft 115 kts 237°
2026-05-04 23:34 45.02102 -63.37170 3189 ft 112 kts 232°
2026-05-04 23:34 45.01515 -63.37895 3150 ft 113 kts 227°
2026-05-04 23:34 45.00851 -63.38484 3073 ft 117 kts 223°
2026-05-04 23:35 45.00138 -63.39051 3020 ft 114 kts 221°
2026-05-04 23:35 44.99494 -63.39616 3077 ft 105 kts 227°
2026-05-04 23:35 44.98890 -63.40226 2972 ft 110 kts 229°
2026-05-04 23:35 44.98280 -63.40892 2882 ft 112 kts 229°
2026-05-04 23:36 44.97677 -63.41582 2804 ft 111 kts 229°
2026-05-04 23:36 44.97058 -63.42249 2726 ft 113 kts 227°
2026-05-04 23:36 44.96427 -63.42937 2601 ft 115 kts 228°
2026-05-04 23:36 44.95793 -63.43636 2431 ft 116 kts 225°
2026-05-04 23:37 44.95095 -63.44225 2368 ft 114 kts 220°
2026-05-04 23:37 44.94409 -63.44806 2277 ft 115 kts 224°
2026-05-04 23:37 44.93771 -63.45484 2191 ft 114 kts 228°
2026-05-04 23:37 44.93145 -63.46209 1995 ft 121 kts 227°
2026-05-04 23:38 44.92492 -63.46884 1930 ft 114 kts 223°
2026-05-04 23:38 44.91824 -63.47500 1799 ft 114 kts 223°
2026-05-04 23:38 44.91184 -63.48165 1497 ft 110 kts 226°
2026-05-04 23:38 44.90611 -63.48743 1336 ft 94 kts 222°
2026-05-04 23:39 44.90110 -63.49300 1093 ft 91 kts 223°
2026-05-04 23:39 44.89568 -63.49802 854 ft 93 kts 221°
2026-05-04 23:39 44.89025 -63.50305 604 ft 95 kts 219°
2026-05-04 23:39 44.88541 -63.50781 477 ft 72 kts 222°
2026-05-04 23:40 44.88197 -63.51120 459 ft 50 kts 224°
2026-05-04 23:40 44.87955 -63.51356 454 ft 34 kts 214°
2026-05-04 23:40 44.87796 -63.51515 455 ft 24 kts 213°
2026-05-04 23:40 44.87658 -63.51647 454 ft 23 kts 214°
2026-05-04 23:41 44.87534 -63.51769 453 ft 20 kts 219°
2026-05-04 23:41 44.87461 -63.51894 453 ft 15 kts 248°
2026-05-04 23:41 44.87446 -63.52031 454 ft 12 kts 282°
2026-05-04 23:41 44.87460 -63.52069 454 ft 0 kts 301°
2026-05-04 23:42 44.87503 -63.52127 455 ft 14 kts
2026-05-04 23:43 44.87604 -63.52032 454 ft 22 kts 38°
2026-05-04 23:43 44.87745 -63.51891 454 ft 26 kts 35°
2026-05-04 23:43 44.87896 -63.51743 454 ft 30 kts 35°
2026-05-04 23:43 44.88094 -63.51543 453 ft 38 kts 33°
2026-05-04 23:44 44.88248 -63.51394 453 ft 9 kts 35°
2026-05-04 23:44 44.88294 -63.51424 453 ft 11 kts 314°
2026-05-04 23:44 44.88337 -63.51498 453 ft 7 kts 303°
2026-05-04 23:44 44.88340 -63.51504 452 ft 0 kts 303°